User: anonymous   Login
Location: Cluj-Napoca
(46.7712°N, 23.6236°E)
Time: 11:45:36
(UTC+03:00)
Language:

ISS - Orbit

View from above orbital plane
View from above orbital plane
View from above satellite
View from above satellite

Ground track
Ground track

The orbit data is extracted from the following two-line orbital elements,

1 25544U 98067A   20223.58708611  .00016717  00000-0  10270-3 0  9080
2 25544  51.6408  79.2377 0001213  11.9334 348.1844 15.49153738 40449
Epoch (UTC): 10 August 2020 14:05:24
Eccentricity: 0.0001213
inclination: 51.6408°
perigee height: 418 km
apogee height: 420 km
right ascension of ascending node: 79.2377°
argument of perigee: 11.9334°
revolutions per day: 15.49153738
mean anomaly at epoch: 348.1844°
orbit number at epoch: 4044

The dashed part of the orbit path shows where the satellite is in the earth's shadow,  

DLR